User: anonymous   Login
Location: Unspecified
(0.0000°N, 0.0000°E)
Time: 06:16:32
(UTC+00:00)
Language:

PCSat - Orbit

View from above orbital plane
View from above orbital plane
View from above satellite
View from above satellite

Ground track
Ground track

The orbit data is extracted from the following two-line orbital elements,

1 26931U 01043C   17119.72417082 -.00000010 +00000-0 +28157-4 0  9998
2 26931 067.0517 216.2361 0007909 272.6245 087.3950 14.30457545813342
Epoch (UTC): 29 April 2017 17:22:48
Eccentricity: 0.0007909
inclination: 67.0517°
perigee height: 784 km
apogee height: 796 km
right ascension of ascending node: 216.2361°
argument of perigee: 272.6245°
revolutions per day: 14.30457545
mean anomaly at epoch: 87.3950°
orbit number at epoch: 81334

The dashed part of the orbit path shows where the satellite is in the earth's shadow,  

DLR